Location: Home
(42.5358°N, 72.7383°W)
Time: 14:31:33
(UTC-05:00)

deb Explorer IX - Pass Details

Date: 05 December 2021
Orbit: 544 x 1082 km, 38.8° (Epoch: 16 January)

Event Time Altitude Azimuth Distance (km) Brightness Sun altitude
Rises 13:12:44 0° 271° (W) 2,810 ? 21.7°
Reaches altitude 10° 13:15:13 10° 262° (W) 1,860 ? 21.5°
Maximum altitude 13:19:02 34° 197° (SSW) 907 ? 21.2°
Drops below altitude 10° 13:22:44 10° 131° (SE) 1,800 ? 21.0°
Sets 13:25:06 0° 122° (ESE) 2,705 ? 20.8°
